Starlink 5079

operational
NORAD ID: 53999 Int'l Des: 2022-125 Owner: SPXS Country: US Constellation: starlink
LEOCIRCULAR

Starlink 5079について

説明を読み込み中...

リアルタイム位置

3D地球を読み込み中...

次回通過

高度履歴

Altitude vs Time

uPlot chart will show altitude changes over time

軌道要素

1 53999U 22125AM 26062.46281057 -.00001156 00000-0 -54519-4 0 9999
2 53999 53.2168 241.9911 0001484 102.6972 257.4186 15.08842187188524
Epoch: Mar 3, 2026 • Age: 22 hours

現在のステータス

高度 559.1 km
速度 7.58 km/s
衛星直下点 -53.00°S, 11.77°E
打ち上げ日 Oct 5, 2022
運用期間 3.4 years
タイプ internet

技術仕様

分類 Payload
質量 305.00 kg
乾燥質量 290.00 kg
総質量 305.00 kg
長さ 0.20 m
直径 2.80 m
スパン 9.00 m
形状 Box + pan
製造者 SPXS
バスタイプ Starlink
フェーズステータス In Orbit
所有者/国 SPXS/US

大規模コンステレーション

Loading constellations...